Back to catalog

COSMOS 1818 COOLANT

LostLEO
NORAD 50785·DEBRIS·🇷🇺 Russia

Launched Feb 1, 1987 from Baikonur Cosmodrome

Loading…

Next Passes (next 24 hours)

TLE

StaleSource: Space-Track

Epoch: Oct 22, 2022, 12:53 UTC

1 50785U 87011BA  22295.53690334  .00000505  00000-0  21294-3 0  9996
2 50785  65.0102 339.2273 0014625 265.8154  94.1261 14.34761780533408

Track COSMOS 1818 COOLANT in real time with AllMySat

Download on the App Store